Miscellaneous Local Product
Issued by NWS North Platte, NE

Home | Current Version | Previous Version | Graphics & Text | Print | Product List | Glossary On
Versions: 1 2 3 4 5 6 7 8 9 10 11 12 13 14 15 16 17 18 19 20 21 22 23 24 25 26 27 28 29 30 31 32 33 34 35 36 37 38 39 40 41 42 43 44 45 46 47 48 49 50
000
AXUS43 KLBF 022110
MISLBF


WESTERN AND NORTH CENTRAL NEBRASKA HOURLY WEATHER ROUNDUP
NATIONAL WEATHER SERVICE NORTH PLATTE NE
400 PM CDT THU JUL 02 2015

***STATIONS NOT REPORTING VARIABLES SUCH AS SKY/WEATHER OR
PRESSURE ARE PROVIDED BY THE NEBRASKA DEPARTMENT OF
ROADS...RAWS...AND APRS NETWORKS...AND ARE NOT UNDER
NATIONAL WEATHER SERVICE QUALITY CONTROL***

...OBSERVATIONS IN AND NEAR THE EASTERN PANHANDLE OF NEBRASKA...

CITY           SKY/WX    TMP DP  RH WIND       PRES   REMARKS
PINE RIDGE     SUNNY     79  58  48 N12       30.07F
CHADRON        MOSUNNY   80  60  50 NE8       30.08S
ALLIANCE       MOSUNNY   79  59  50 N12       30.10S
SIDNEY         MOSUNNY   82  57  42 N13G21    30.14F
WHITECLAY        N/A     79  58  48 S9          N/A
CRESCENT LAKE    N/A     81  56  42 N9G21       N/A
BIG SPRINGS      N/A     81  60  49 N6          N/A
$$

...OBSERVATIONS IN NORTH CENTRAL NEBRASKA...

CITY           SKY/WX    TMP DP  RH WIND       PRES   REMARKS
VALENTINE      MOSUNNY   80  57  45 N16G24    30.02S
THEDFORD       MOSUNNY   80  59  48 N12G23    30.03F
AINSWORTH      MOSUNNY   81  58  45 N23G29    30.01S
O`NEILL        CLOUDY    74  66  74 NE8       29.97F
ORD            MOSUNNY   84  62  47 N14G24    29.93R
BROKEN BOW     MOSUNNY   83  57  41 N20G26    29.97S
VALENTINE NWR    N/A     79  60  51 N14G21      N/A
SPRINGVIEW       N/A     78  61  55 NE12        N/A
HALSEY           N/A     81  56  42 N12G22      N/A
BREWSTER         N/A     85  58  40 E21         N/A
ROSE             N/A     88  75  66 N16         N/A  HX  97
NEWPORT          N/A     78  64  61 S7          N/A
SARGENT          N/A     84  58  41 NW3G13      N/A
CHAMBERS         N/A     72  65  77 CALM        N/A
EWING            N/A     74  68  81 NE6G13      N/A
$$

...OBSERVATIONS IN SOUTHWEST NEBRASKA AND FAR NORTHEAST COLORADO...

CITY           SKY/WX    TMP DP  RH WIND       PRES   REMARKS
WRAY           FAIR      88  55  32 N14G20    30.08F
HOLYOKE        FAIR      86  54  32 N14G20    30.09F
IMPERIAL       MOSUNNY   83  56  39 N14       30.06S
OGALLALA       MOSUNNY   82  60  48 N10G17    30.06F
NORTH PLATTE   MOSUNNY   82  59  45 N10G21    30.01S
MCCOOK         MOSUNNY   88  58  36 N13       29.99F
LEXINGTON      MOSUNNY   78  68  71 N10       29.99F
PAXTON           N/A     84  62  47 NW8         N/A
GOTHENBURG       N/A     82  58  44 N9          N/A
CALLAWAY         N/A     81  66  59 N14         N/A
$$

...NORTH PLATTE AREA...

CITY           SKY/WX    TMP DP  RH WIND       PRES   REMARKS
AIRPORT        MOSUNNY   82  59  45 N10G21    30.01S
DOWNTOWN         N/A     81  60  48 N8          N/A
HILLCREST        N/A     80  58  47 N15G22      N/A
$$

...SOME WEATHER OBSERVATIONS FROM AROUND THE REGION...

CITY           SKY/WX    TMP DP  RH WIND       PRES   REMARKS
DENVER         MOSUNNY   81  49  32 SE8       30.18F
LARAMIE        SUNNY     80  46  30 MISG      30.27F
CHEYENNE       SUNNY     79  51  37 NE7       30.22F
SCOTTSBLUFF    MOSUNNY   83  55  38 N9        30.11F
RAPID CITY     SUNNY     80  56  43 NW18G29   30.07F
PIERRE         MOSUNNY   77  65  66 NE9       29.96F
WINNER           N/A     79  59  50 N12       29.99
SIOUX FALLS    CLOUDY    70  58  65 E7        30.00S
OMAHA          CLOUDY    69  64  84 SE7       29.96R
GRAND ISLAND   LGT RAIN  72  65  78 SE6       29.92F
KANSAS CITY    CLOUDY    71  67  87 E6        29.92F
WICHITA        CLOUDY    77  72  84 NW9       29.96R
HAYS           MOSUNNY   82  64  54 NW10G16   29.99S
LIBERAL        MOSUNNY   90  63  40 NE8       30.01S HX  90
GOODLAND       SUNNY     85  57  38 N17G23    30.07F
$$



USA.gov is the U.S. government's official web portal to all federal, state and local government web resources and services.